This is the latest recevied weather packets stored in our database for station/object KC1OEK-13. If no packets are shown the sender has not sent any weather packets the latest 10 day(s).
| Time | Temp. | Humidity | Pressure | Rain* | Wind** | Luminosity | Snow |
|---|---|---|---|---|---|---|---|
| 1778080113 | 18.89° C | 74% | 1010.9 hPa | 0 mm | - | 234 W/m² | - |
| 1778079810 | 19.44° C | 74% | 1010.9 hPa | 0 mm | - | 223 W/m² | - |
| 1778079507 | 18.89° C | 74% | 1011.1 hPa | 0 mm | - | 220 W/m² | - |
| 1778079203 | 18.89° C | 73% | 1010.9 hPa | 0 mm | - | 236 W/m² | - |
| 1778078901 | 19.44° C | 75% | 1011 hPa | 0 mm | - | 249 W/m² | - |
| 1778078597 | 18.89° C | 74% | 1011.1 hPa | 0 mm | - | 265 W/m² | - |
| 1778078296 | 18.89° C | 75% | 1011 hPa | 0 mm | - | 268 W/m² | - |
| 1778077992 | 18.89° C | 74% | 1011.2 hPa | 0 mm | - | 281 W/m² | - |
| 1778077690 | 18.89° C | 74% | 1011.2 hPa | 0 mm | - | 242 W/m² | - |
| 1778077388 | 18.89° C | 75% | 1011.3 hPa | 0 mm | - | 278 W/m² | - |
| 1778077086 | 18.89° C | 75% | 1011.4 hPa | 0 mm | - | 260 W/m² | - |
| 1778076784 | 18.89° C | 75% | 1011.3 hPa | 0 mm | - | 273 W/m² | - |
| 1778076482 | 18.89° C | 74% | 1011.2 hPa | 0 mm | - | 329 W/m² | - |
| 1778076178 | 18.89° C | 75% | 1011.4 hPa | 0 mm | - | 333 W/m² | - |
| 1778075875 | 18.89° C | 75% | 1011.2 hPa | 0 mm | - | 315 W/m² | - |
| 1778075571 | 18.33° C | 77% | 1011.1 hPa | 0 mm | - | 287 W/m² | - |
| 1778075268 | 18.33° C | 77% | 1011.2 hPa | 0 mm | - | 289 W/m² | - |
| 1778074965 | 18.33° C | 77% | 1011.1 hPa | 0 mm | - | 225 W/m² | - |
| 1778074662 | 18.33° C | 77% | 1011.4 hPa | 0 mm | - | 231 W/m² | - |
| 1778074358 | 17.78° C | 78% | 1011.1 hPa | 0 mm | - | 341 W/m² | - |
| 1778074055 | 17.78° C | 78% | 1011.1 hPa | 0 mm | - | 178 W/m² | - |
| 1778073753 | 17.78° C | 78% | 1011.2 hPa | 0 mm | - | 192 W/m² | - |
| 1778073451 | 18.33° C | 78% | 1010.9 hPa | 0 mm | - | 245 W/m² | - |
| 1778073146 | 18.33° C | 78% | 1011.1 hPa | 0 mm | - | 225 W/m² | - |
| 1778072843 | 17.78° C | 79% | 1011.3 hPa | 0 mm | - | 318 W/m² | - |
* Rain latest hour (hover to see other rain measurements)
** Current wind speed in m/s (hover to see current wind gust speed)